Regional Weather Roundup
Issued by NWS Nashville, TN

Home | Current Version | Previous Version | Text Only | Print | Product List | Glossary On
Versions: 1 2 3 4 5 6 7 8 9 10 11 12 13 14 15 16 17 18 19 20 21 22 23 24 25 26 27 28 29 30 31 32 33 34 35 36 37 38 39 40 41 42 43 44 45 46 47 48 49 50
000
ASUS44 KOHX 042315
RWROHX
MIDDLE TENNESSEE HOURLY WEATHER ROUNDUP
NATIONAL WEATHER SERVICE NASHVILLE TN
500 PM CST WED MAR 04 2015

NOTE: "FAIR" INDICATES FEW OR NO CLOUDS BELOW 12,000 FEET WITH
NO SIGNIFICANT WEATHER AND/OR OBSTRUCTIONS TO VISIBILITY.

* THESE REPORTS ARE NOT UNDER NWS QUALITY CONTROL AND MAY NOT
  REPORT WEATHER SUCH AS PRECIPITATION AND FOG.


TNZ005>011-023>034-057-059-062>066-078-080-050000
...NORTHERN MIDDLE TENNESSEE...

CITY           SKY/WX    TMP DP  RH WIND       PRES   REMARKS
CLARKSVILLE    FRZ RAIN  31  29  92 N20       30.09R FOG     WCI  19
CROSSVILLE     CLOUDY    49  47  93 N12       29.89R
GALLATIN       CLOUDY    36  36 100 N13       30.00R WCI  27
DICKSON        CLOUDY    32  30  93 N15       30.03R WCI  22
LIVINGSTON     CLOUDY    41  40  96 N12       29.91S
NASHVILLE      RAIN      37  35  92 N15       30.04R FOG     WCI  28
PORTLAND       CLOUDY    34  32  93 CALM      30.02R
SPARTA         CLOUDY    43  43 100 N12       29.91R
$$
TNZ056-058-060-061-075>077-079-093>097-050000
...SOUTHERN MIDDLE TENNESSEE...

CITY           SKY/WX    TMP DP  RH WIND       PRES   REMARKS
COLUMBIA       CLOUDY   N/A N/A N/A N8        29.98R
LEWISBURG      CLOUDY    40  38  93 N13       29.97R WCI  32
MCMINNVILLE    CLOUDY    45  45 100 N15       29.91R
MURFREESBORO   CLOUDY    39  38  97 NW8       29.98R WCI  33
SHELBYVILLE    CLOUDY    39  39 100 N17       29.96R WCI  30
TULLAHOMA      CLOUDY    43  41  93 NW16      29.93R
WINCHESTER     CLOUDY    46  46 100 N7        29.90R
$$


...KEY TO REMARKS...
VSB - VISIBILITY IN MILES
WCI - WIND CHILL INDEX
HX  - HEAT INDEX



USA.gov is the U.S. government's official web portal to all federal, state and local government web resources and services.